Simultaneous Nadir Overpasses (SNOs) Predictions

Prediction of SNOs over PacNW region [( 10.00, 139.50) to ( 22.70, 165.60)] between AQUA and NPP Satellites:

Table of predicted SNOs over PacNW region for the next 30.0 days since TLE Epoch: 2/7/2020
Index Date (AQUA) Time (AQUA) AQUA Lat,Lon Date (NPP) Time (NPP) NPP Lat,Lon Distance(km) Time Diff (sec)
1 02/10/2020 15:09:57 22.58, 159.85 02/10/2020 15:10:33 23.14, 157.28 270.26 36
2 02/18/2020 15:59:29 22.61, 147.48 02/18/2020 16:01:19 23.23, 144.60 302.82 110
3 02/26/2020 15:10:08 22.59, 159.82 02/26/2020 15:10:38 23.15, 157.25 270.60 30
4 03/05/2020 15:59:40 22.60, 147.45 03/05/2020 16:01:24 23.27, 144.58 303.54 104




NCC Satellite Simultaneous Nadir Overpasses (SNOs) Prediction Service
